Flag for Germany Weather past 2 weeks in Mülheim, North Rhine-Westphalia, Germany

Now
66 °F

Broken clouds.


Feels Like: 66 °F
Forecast: 49 / 64 °F
Wind: 13 mph from Southwest

Location: Koeln / Bonn

Current Time: May 28, 2015 at 12:43:57 PM

Latest Report: May 28, 2015 at 12:20 PM


Visibility: N/A

Pressure: 29.95 "Hg

Humidity: 49%

Dew point: 46 °F

Location of MülheimLocation

Historic Weather in Mülheim — Graph

°F

Mülheim temperature yesterday

Maximum temperature yesterday: 63 °F (at 3:20 PM)
Minimum temperature yesterday: 41 °F (at 1:20 AM)
Average temperature yesterday: 53 °F

Past Weeks' High & Low Weather Summary

 TemperatureHumidityPressure
High73 °F (May 18, 4:20 PM)94% (May 15, 7:20 AM)30.33 "Hg (May 15, 7:20 AM)
Low39 °F (May 17, 4:50 AM)26% (May 14, 3:50 PM)29.65 "Hg (May 18, 7:20 PM)
Average55 °F64%30.06 "Hg
* Reported May 13 11:20 AM — May 28 11:20 AM, Mülheim, Weather by CustomWeather, © 2015

Note: Actual official high and low records may vary slightly from our data, if they occured in-between our weather recording intervals... More about our weather records

Advertising

Mülheim weather history for previous 24 hours

 ConditionsComfort  
Time TempWeatherWind HumidityBarometerVisibility
11:20 AM
Thu, May 28
63 °FBroken clouds.9 mph59%29.95 "HgN/A
10:50 AM63 °FBroken clouds.13 mph56%29.98 "HgN/A
10:20 AM63 °FPartly sunny.12 mph56%29.98 "HgN/A
9:50 AM61 °FPartly sunny.12 mph59%29.98 "HgN/A
9:20 AM59 °FPartly sunny.9 mph55%29.98 "HgN/A
8:50 AM57 °FPartly sunny.8 mph59%29.98 "HgN/A
8:20 AM55 °FBroken clouds.9 mph63%30.01 "HgN/A
7:50 AM55 °FBroken clouds.10 mph63%30.01 "HgN/A
7:20 AM55 °FPartly sunny.9 mph59%30.01 "HgN/A
6:50 AM54 °FBroken clouds.9 mph63%30.01 "HgN/A
6:20 AM54 °FClear.10 mph63%30.01 "Hg10 mi
5:50 AM54 °FLight rain. Clear.13 mph63%30.01 "HgN/A
5:20 AM54 °FClear.13 mph63%30.01 "Hg10 mi
4:50 AM54 °FClear.10 mph58%30.01 "Hg10 mi
4:20 AM54 °FPartly cloudy.10 mph58%30.01 "HgN/A
3:50 AM54 °FPassing clouds.10 mph58%30.01 "HgN/A
3:20 AM54 °FClear.10 mph58%30.04 "Hg10 mi
2:50 AM54 °FClear.10 mph58%30.04 "Hg10 mi
2:20 AM54 °FClear.10 mph58%30.07 "Hg10 mi
1:50 AM54 °FClear.9 mph58%30.07 "Hg10 mi
1:20 AM54 °FClear.8 mph58%30.07 "Hg10 mi
12:50 AM55 °FClear.10 mph55%30.07 "Hg10 mi
12:20 AM54 °FClear.9 mph58%30.09 "Hg10 mi
11:50 PM
Wed, May 27
54 °FClear.8 mph54%30.09 "Hg10 mi
11:20 PM54 °FClear.9 mph54%30.09 "Hg10 mi
10:50 PM52 °FClear.9 mph62%30.09 "Hg10 mi
10:20 PM52 °FSunny.9 mph62%30.12 "Hg10 mi
9:50 PM54 °FSunny.9 mph58%30.12 "Hg10 mi
9:20 PM57 °FSunny.8 mph48%30.12 "Hg10 mi
8:50 PM57 °FSunny.7 mph48%30.12 "Hg10 mi
8:20 PM59 °FSunny.7 mph48%30.12 "Hg10 mi
7:50 PM61 °FSunny.5 mph42%30.12 "Hg10 mi
7:20 PM61 °FSunny.5 mph39%30.15 "Hg10 mi
6:50 PM63 °FSunny.3 mph37%30.15 "Hg10 mi
6:20 PM63 °FSunny.3 mph37%30.18 "Hg10 mi
5:50 PM61 °FSunny.2 mph42%30.18 "Hg10 mi
5:20 PM61 °FSunny.6 mph39%30.18 "Hg10 mi
4:50 PM61 °FSunny.7 mph39%30.18 "Hg10 mi
4:20 PM61 °FSunny.5 mph39%30.21 "Hg10 mi
3:50 PM61 °FSunny.3 mph39%30.21 "Hg10 mi
3:20 PM63 °FPassing clouds.5 mph39%30.21 "HgN/A
2:50 PM59 °FSunny.3 mph42%30.21 "Hg10 mi
2:20 PM59 °FSunny.3 mph45%30.24 "Hg10 mi
1:50 PM57 °FPassing clouds.5 mph44%30.24 "HgN/A
1:20 PM59 °FScattered clouds.3 mph45%30.24 "HgN/A
12:50 PM57 °FBroken clouds.5 mph48%30.24 "HgN/A
12:20 PM57 °FBroken clouds.6 mph44%30.24 "HgN/A
Weather by CustomWeather, © 2015

See weather overviewHow to use our weather pages